| time (UTC) | temp C | wind direction | speed KPH | gust KPH | rain 1hr cm | rain 24hr cm | rain mn cm | humidity % | barometer mb |
| 20260508135824 | 9 | 158 | 0.0 | 4.8 | 0.00 | 0.00 | 0.00 | 89 | 1029.9 |
| 20260508135323 | 8 | 169 | 0.0 | 4.8 | 0.00 | 0.00 | 0.00 | 89 | 1029.8 |
| 20260508134823 | 8 | 173 | 0.0 | 3.2 | 0.00 | 0.00 | 0.00 | 89 | 1029.7 |
| 20260508134323 | 8 | 172 | 0.0 | 3.2 | 0.00 | 0.00 | 0.00 | 89 | 1029.6 |
| 20260508133818 | 8 | 173 | 0.0 | 1.6 | 0.00 | 0.00 | 0.00 | 89 | 1029.5 |
| 20260508133319 | 8 | 173 | 0.0 | 3.2 | 0.00 | 0.00 | 0.00 | 89 | 1029.4 |
| 20260508132820 | 8 | 173 | 1.6 | 4.8 | 0.00 | 0.00 | 0.00 | 89 | 1029.3 |
| 20260508132318 | 8 | 173 | 1.6 | 4.8 | 0.00 | 0.00 | 0.00 | 89 | 1029.3 |
| 20260508131819 | 8 | 175 | 1.6 | 4.8 | 0.00 | 0.00 | 0.00 | 89 | 1029.2 |
| 20260508131320 | 8 | 175 | 0.0 | 4.8 | 0.00 | 0.00 | 0.00 | 89 | 1029.1 |
| 20260508130814 | 8 | 187 | 0.0 | 3.2 | 0.00 | 0.00 | 0.00 | 89 | 1029.2 |
| 20260508130315 | 8 | 188 | 0.0 | 3.2 | 0.00 | 0.00 | 0.00 | 89 | 1029.1 |
| 20260508125814 | 8 | 188 | 1.6 | 4.8 | 0.00 | 0.00 | 0.00 | 88 | 1028.9 |
| 20260508125315 | 8 | 188 | 1.6 | 4.8 | 0.00 | 0.00 | 0.00 | 88 | 1028.8 |
| 20260508124815 | 8 | 183 | 0.0 | 3.2 | 0.00 | 0.00 | 0.00 | 88 | 1028.7 |
| 20260508124316 | 8 | 174 | 0.0 | 3.2 | 0.00 | 0.00 | 0.00 | 88 | 1028.7 |
| 20260508123814 | 8 | 169 | 0.0 | 1.6 | 0.00 | 0.00 | 0.00 | 87 | 1028.4 |
| 20260508123315 | 8 | 169 | 0.0 | 1.6 | 0.00 | 0.00 | 0.00 | 87 | 1028.3 |
| 20260508122814 | 9 | 169 | 0.0 | 1.6 | 0.00 | 0.00 | 0.00 | 87 | 1028.3 |
| 20260508122312 | 9 | 169 | 0.0 | 1.6 | 0.00 | 0.00 | 0.00 | 87 | 1028.1 |
| 20260508121814 | 9 | 169 | 1.6 | 3.2 | 0.00 | 0.00 | 0.00 | 87 | 1028.1 |
| 20260508121310 | 9 | 169 | 1.6 | 8.0 | 0.00 | 0.00 | 0.00 | 87 | 1028.0 |
| 20260508120808 | 9 | 169 | 1.6 | 8.0 | 0.00 | 0.00 | 0.00 | 87 | 1027.9 |
| 20260508120309 | 9 | 209 | 0.0 | 3.2 | 0.00 | 0.00 | 0.00 | 86 | 1028.0 |
| 20260508115804 | 9 | 211 | 0.0 | 4.8 | 0.00 | 0.00 | 0.00 | 86 | 1028.1 |
| 20260508115306 | 9 | 211 | 1.6 | 4.8 | 0.00 | 0.00 | 0.00 | 86 | 1028.0 |
| 20260508114803 | 9 | 211 | 1.6 | 4.8 | 0.00 | 0.00 | 0.00 | 86 | 1028.0 |
| 20260508114303 | 10 | 211 | 1.6 | 6.4 | 0.00 | 0.00 | 0.00 | 85 | 1028.0 |
| 20260508113803 | 10 | 221 | 3.2 | 8.0 | 0.00 | 0.00 | 0.00 | 85 | 1028.0 |
| 20260508113303 | 10 | 213 | 3.2 | 8.0 | 0.00 | 0.00 | 0.00 | 85 | 1027.9 |
| 20260508112802 | 10 | 226 | 3.2 | 12.9 | 0.00 | 0.00 | 0.00 | 85 | 1027.9 |
| 20260508112258 | 10 | 197 | 3.2 | 12.9 | 0.00 | 0.00 | 0.00 | 85 | 1027.7 |
| 20260508111759 | 10 | 254 | 3.2 | 9.7 | 0.00 | 0.00 | 0.00 | 85 | 1027.6 |
| 20260508111258 | 10 | 250 | 4.8 | 11.3 | 0.00 | 0.00 | 0.00 | 84 | 1027.6 |
| 20260508110756 | 10 | 276 | 3.2 | 11.3 | 0.00 | 0.00 | 0.00 | 85 | 1027.4 |
| 20260508110257 | 10 | 229 | 3.2 | 9.7 | 0.00 | 0.00 | 0.00 | 84 | 1027.4 |
| 20260508105754 | 10 | 229 | 3.2 | 8.0 | 0.00 | 0.00 | 0.00 | 84 | 1027.2 |
| 20260508105254 | 10 | 210 | 3.2 | 8.0 | 0.00 | 0.00 | 0.00 | 85 | 1027.2 |
| 20260508104755 | 10 | 201 | 1.6 | 4.8 | 0.00 | 0.00 | 0.00 | 85 | 1027.2 |
| 20260508104252 | 10 | 186 | 0.0 | 4.8 | 0.00 | 0.00 | 0.00 | 85 | 1027.1 |
| 20260508103750 | 10 | 251 | 0.0 | 3.2 | 0.00 | 0.00 | 0.00 | 85 | 1027.2 |
| 20260508103251 | 10 | 254 | 0.0 | 4.8 | 0.00 | 0.00 | 0.00 | 85 | 1027.2 |
| 20260508102744 | 10 | 253 | 1.6 | 6.4 | 0.00 | 0.00 | 0.00 | 85 | 1027.1 |
| 20260508102242 | 10 | 205 | 1.6 | 6.4 | 0.00 | 0.00 | 0.00 | 84 | 1027.2 |
| 20260508101740 | 10 | 227 | 3.2 | 8.0 | 0.00 | 0.00 | 0.00 | 84 | 1027.1 |
| 20260508101238 | 10 | 247 | 3.2 | 8.0 | 0.00 | 0.00 | 0.00 | 84 | 1027.2 |
| 20260508100739 | 10 | 245 | 1.6 | 6.4 | 0.00 | 0.00 | 0.00 | 85 | 1027.0 |
| 20260508100232 | 10 | 238 | 1.6 | 6.4 | 0.00 | 0.00 | 0.00 | 85 | 1026.9 |
| 20260508095733 | 10 | 269 | 3.2 | 11.3 | 0.00 | 0.00 | 0.00 | 85 | 1026.8 |
| 20260508095232 | 10 | 264 | 3.2 | 11.3 | 0.00 | 0.00 | 0.00 | 85 | 1026.7 |
| 20260508094732 | 10 | 229 | 1.6 | 9.7 | 0.00 | 0.00 | 0.00 | 86 | 1026.7 |
| 20260508094232 | 10 | 208 | 1.6 | 4.8 | 0.00 | 0.00 | 0.00 | 86 | 1026.6 |
| 20260508093731 | 9 | 236 | 1.6 | 3.2 | 0.00 | 0.00 | 0.00 | 87 | 1026.4 |
| 20260508093226 | 9 | 236 | 0.0 | 3.2 | 0.00 | 0.00 | 0.00 | 87 | 1026.3 |
| 20260508092726 | 9 | 251 | 0.0 | 3.2 | 0.00 | 0.00 | 0.00 | 87 | 1026.3 |
| 20260508092223 | 9 | 227 | 0.0 | 0.0 | 0.00 | 0.00 | 0.00 | 87 | 1026.2 |
| 20260508091720 | 9 | 227 | 0.0 | 0.0 | 0.00 | 0.00 | 0.00 | 87 | 1026.2 |
| 20260508091220 | 9 | 227 | 0.0 | 3.2 | 0.00 | 0.00 | 0.00 | 87 | 1026.3 |
| 20260508090719 | 9 | 227 | 0.0 | 3.2 | 0.00 | 0.00 | 0.00 | 87 | 1026.3 |
| 20260508090216 | 9 | 227 | 0.0 | 1.6 | 0.00 | 0.00 | 0.00 | 87 | 1026.4 |
| 20260508085717 | 9 | 234 | 0.0 | 0.0 | 0.00 | 0.00 | 0.00 | 87 | 1026.3 |
| 20260508085216 | 9 | 234 | 0.0 | 1.6 | 0.00 | 0.00 | 0.00 | 87 | 1026.3 |
| 20260508084714 | 9 | 235 | 0.0 | 1.6 | 0.00 | 0.00 | 0.00 | 87 | 1026.2 |
| 20260508084215 | 9 | 235 | 0.0 | 0.0 | 0.00 | 0.00 | 0.00 | 87 | 1026.4 |
| 20260508083712 | 9 | 234 | 0.0 | 1.6 | 0.00 | 0.00 | 0.00 | 87 | 1026.4 |
| 20260508083210 | 9 | 235 | 0.0 | 1.6 | 0.00 | 0.00 | 0.00 | 87 | 1026.2 |
| 20260508082707 | 9 | 234 | 0.0 | 0.0 | 0.00 | 0.00 | 0.00 | 86 | 1026.2 |
| 20260508082209 | 9 | 235 | 0.0 | 0.0 | 0.00 | 0.00 | 0.00 | 86 | 1026.1 |
| 20260508081708 | 9 | 235 | 0.0 | 0.0 | 0.00 | 0.00 | 0.00 | 85 | 1026.0 |
| 20260508081209 | 10 | 234 | 0.0 | 0.0 | 0.00 | 0.00 | 0.00 | 86 | 1026.0 |
| 20260508080705 | 10 | 234 | 0.0 | 0.0 | 0.00 | 0.00 | 0.00 | 85 | 1026.0 |
| 20260508080204 | 10 | 234 | 0.0 | 0.0 | 0.00 | 0.00 | 0.00 | 85 | 1026.0 |
| 20260508075702 | 10 | 234 | 0.0 | 0.0 | 0.00 | 0.00 | 0.00 | 85 | 1026.0 |
| 20260508075202 | 10 | 236 | 0.0 | 0.0 | 0.00 | 0.00 | 0.00 | 85 | 1025.9 |
| 20260508074701 | 10 | 235 | 0.0 | 0.0 | 0.00 | 0.00 | 0.00 | 85 | 1026.0 |
| 20260508074203 | 10 | 235 | 0.0 | 0.0 | 0.00 | 0.00 | 0.00 | 85 | 1025.9 |
| 20260508073659 | 10 | 235 | 0.0 | 1.6 | 0.00 | 0.00 | 0.00 | 85 | 1025.9 |
| 20260508073157 | 10 | 235 | 0.0 | 1.6 | 0.00 | 0.00 | 0.00 | 84 | 1025.8 |
| 20260508072659 | 10 | 234 | 0.0 | 1.6 | 0.00 | 0.00 | 0.00 | 84 | 1025.7 |
| 20260508072158 | 10 | 235 | 0.0 | 0.0 | 0.00 | 0.00 | 0.00 | 83 | 1025.7 |
| 20260508071656 | 11 | 235 | 0.0 | 0.0 | 0.00 | 0.00 | 0.00 | 83 | 1025.7 |
| 20260508071157 | 11 | 234 | 0.0 | 0.0 | 0.00 | 0.00 | 0.00 | 83 | 1025.6 |
| 20260508070651 | 11 | 234 | 0.0 | 0.0 | 0.00 | 0.00 | 0.00 | 83 | 1025.6 |
| 20260508070149 | 11 | 235 | 0.0 | 0.0 | 0.00 | 0.00 | 0.00 | 82 | 1025.6 |
| 20260508065650 | 11 | 235 | 0.0 | 0.0 | 0.00 | 0.00 | 0.00 | 81 | 1025.7 |
| 20260508065151 | 11 | 234 | 0.0 | 0.0 | 0.00 | 0.00 | 0.00 | 81 | 1025.7 |
| 20260508064650 | 11 | 234 | 0.0 | 0.0 | 0.00 | 0.00 | 0.00 | 80 | 1025.6 |
| 20260508064149 | 11 | 235 | 0.0 | 0.0 | 0.00 | 0.00 | 0.00 | 80 | 1025.5 |
| 20260508063646 | 11 | 236 | 0.0 | 0.0 | 0.00 | 0.00 | 0.00 | 80 | 1025.5 |
| 20260508063146 | 12 | 235 | 0.0 | 0.0 | 0.00 | 0.00 | 0.00 | 80 | 1025.6 |
| 20260508062646 | 12 | 234 | 0.0 | 0.0 | 0.00 | 0.00 | 0.00 | 79 | 1025.5 |
| 20260508062147 | 12 | 236 | 0.0 | 0.0 | 0.00 | 0.00 | 0.00 | 78 | 1025.5 |
| 20260508061644 | 12 | 234 | 0.0 | 0.0 | 0.00 | 0.00 | 0.00 | 78 | 1025.4 |
| 20260508061144 | 12 | 235 | 0.0 | 0.0 | 0.00 | 0.00 | 0.00 | 78 | 1025.4 |
| 20260508060638 | 12 | 234 | 0.0 | 0.0 | 0.00 | 0.00 | 0.00 | 77 | 1025.5 |
| 20260508060137 | 12 | 234 | 0.0 | 0.0 | 0.00 | 0.00 | 0.00 | 77 | 1025.4 |
| 20260508055638 | 12 | 235 | 0.0 | 0.0 | 0.00 | 0.00 | 0.00 | 77 | 1025.5 |
| 20260508055138 | 12 | 235 | 0.0 | 0.0 | 0.00 | 0.00 | 0.00 | 76 | 1025.5 |
| 20260508054638 | 13 | 235 | 0.0 | 0.0 | 0.00 | 0.00 | 0.00 | 75 | 1025.4 |
| 20260508054138 | 13 | 235 | 0.0 | 0.0 | 0.00 | 0.00 | 0.00 | 74 | 1025.4 |
| 20260508053631 | 13 | 235 | 0.0 | 0.0 | 0.00 | 0.00 | 0.00 | 74 | 1025.4 |
| 20260508053132 | 13 | 234 | 0.0 | 0.0 | 0.00 | 0.00 | 0.00 | 73 | 1025.4 |
| 20260508052632 | 13 | 235 | 0.0 | 0.0 | 0.00 | 0.00 | 0.00 | 73 | 1025.3 |
| 20260508052132 | 14 | 235 | 0.0 | 0.0 | 0.00 | 0.00 | 0.00 | 72 | 1025.3 |
| 20260508051632 | 14 | 234 | 0.0 | 0.0 | 0.00 | 0.00 | 0.00 | 72 | 1025.4 |
| 20260508051133 | 14 | 235 | 0.0 | 0.0 | 0.00 | 0.00 | 0.00 | 71 | 1025.4 |
| 20260508050627 | 14 | 234 | 0.0 | 1.6 | 0.00 | 0.00 | 0.00 | 71 | 1025.5 |
| 20260508050126 | 15 | 234 | 0.0 | 1.6 | 0.00 | 0.00 | 0.00 | 70 | 1025.3 |
| 20260508045626 | 15 | 234 | 0.0 | 1.6 | 0.00 | 0.00 | 0.00 | 70 | 1025.3 |
| 20260508045125 | 15 | 235 | 0.0 | 1.6 | 0.00 | 0.00 | 0.00 | 69 | 1025.3 |
| 20260508044626 | 15 | 234 | 0.0 | 3.2 | 0.00 | 0.00 | 0.00 | 69 | 1025.3 |
| 20260508043626 | 15 | 233 | 0.0 | 4.8 | 0.00 | 0.00 | 0.00 | 69 | 1025.3 |
| 20260508043122 | 15 | 234 | 0.0 | 4.8 | 0.00 | 0.00 | 0.00 | 68 | 1025.2 |
| 20260508042623 | 16 | 234 | 1.6 | 4.8 | 0.00 | 0.00 | 0.00 | 67 | 1025.2 |
| 20260508042122 | 16 | 234 | 1.6 | 4.8 | 0.00 | 0.00 | 0.00 | 67 | 1025.1 |
| 20260508041620 | 16 | 289 | 1.6 | 4.8 | 0.00 | 0.00 | 0.00 | 66 | 1025.0 |
| 20260508041121 | 16 | 296 | 1.6 | 6.4 | 0.00 | 0.00 | 0.00 | 66 | 1025.0 |
| 20260508040616 | 16 | 292 | 3.2 | 6.4 | 0.00 | 0.00 | 0.00 | 65 | 1025.0 |
| 20260508040117 | 16 | 275 | 3.2 | 6.4 | 0.00 | 0.00 | 0.00 | 65 | 1025.0 |
| 20260508035614 | 16 | 276 | 3.2 | 6.4 | 0.00 | 0.00 | 0.00 | 65 | 1024.9 |
| 20260508035114 | 17 | 275 | 3.2 | 6.4 | 0.00 | 0.00 | 0.00 | 65 | 1024.9 |
| 20260508034613 | 17 | 329 | 3.2 | 6.4 | 0.00 | 0.00 | 0.00 | 65 | 1025.0 |
| 20260508034115 | 17 | 329 | 3.2 | 6.4 | 0.00 | 0.00 | 0.00 | 65 | 1024.8 |
| 20260508033608 | 17 | 317 | 3.2 | 11.3 | 0.00 | 0.00 | 0.00 | 65 | 1024.8 |
| 20260508033108 | 17 | 258 | 3.2 | 11.3 | 0.00 | 0.00 | 0.00 | 65 | 1024.7 |
| 20260508032607 | 18 | 285 | 3.2 | 9.7 | 0.00 | 0.00 | 0.00 | 64 | 1024.6 |
| 20260508032107 | 18 | 268 | 3.2 | 11.3 | 0.00 | 0.00 | 0.00 | 64 | 1024.5 |
| 20260508031608 | 18 | 276 | 3.2 | 12.9 | 0.00 | 0.00 | 0.00 | 63 | 1024.4 |
| 20260508031109 | 18 | 291 | 3.2 | 12.9 | 0.00 | 0.00 | 0.00 | 62 | 1024.4 |
| 20260508030606 | 19 | 288 | 4.8 | 8.0 | 0.00 | 0.00 | 0.00 | 62 | 1024.3 |
| 20260508030103 | 20 | 345 | 4.8 | 14.5 | 0.00 | 0.00 | 0.00 | 61 | 1024.6 |
| 20260508025605 | 20 | 284 | 4.8 | 14.5 | 0.00 | 0.00 | 0.00 | 59 | 1024.5 |
| 20260508025103 | 21 | 355 | 3.2 | 14.5 | 0.00 | 0.00 | 0.00 | 57 | 1024.5 |
| 20260508024601 | 22 | 307 | 1.6 | 8.0 | 0.00 | 0.00 | 0.00 | 48 | 1024.4 |
| 20260508024103 | 22 | 109 | 1.6 | 4.8 | 0.00 | 0.00 | 0.00 | 48 | 1024.3 |
| 20260508023556 | 22 | 111 | 1.6 | 3.2 | 0.00 | 0.00 | 0.00 | 48 | 1024.2 |
| 20260508023058 | 22 | 112 | 1.6 | 6.4 | 0.00 | 0.00 | 0.00 | 48 | 1024.3 |
| 20260508022554 | 22 | 102 | 1.6 | 6.4 | 0.00 | 0.00 | 0.00 | 47 | 1024.3 |
| 20260508022054 | 23 | 114 | 3.2 | 6.4 | 0.00 | 0.00 | 0.00 | 46 | 1024.3 |
| 20260508021553 | 23 | 82 | 3.2 | 6.4 | 0.00 | 0.00 | 0.00 | 46 | 1024.2 |
| 20260508021054 | 23 | 87 | 3.2 | 9.7 | 0.00 | 0.00 | 0.00 | 46 | 1024.1 |
| 20260508020549 | 23 | 71 | 3.2 | 9.7 | 0.00 | 0.00 | 0.00 | 46 | 1024.2 |
| 20260508020048 | 23 | 90 | 3.2 | 9.7 | 0.00 | 0.00 | 0.00 | 45 | 1024.1 |
| 20260508015549 | 23 | 102 | 3.2 | 9.7 | 0.00 | 0.00 | 0.00 | 45 | 1024.1 |
| 20260508015047 | 24 | 79 | 3.2 | 9.7 | 0.00 | 0.00 | 0.00 | 44 | 1024.1 |
| 20260508014547 | 24 | 62 | 4.8 | 12.9 | 0.00 | 0.00 | 0.00 | 45 | 1024.4 |
| 20260508014049 | 24 | 146 | 4.8 | 12.9 | 0.00 | 0.00 | 0.00 | 44 | 1024.4 |
| 20260508013544 | 24 | 102 | 3.2 | 12.9 | 0.00 | 0.00 | 0.00 | 43 | 1024.5 |
| 20260508013045 | 24 | 132 | 4.8 | 12.9 | 0.00 | 0.00 | 0.00 | 44 | 1024.7 |
| 20260508012545 | 24 | 31 | 3.2 | 8.0 | 0.00 | 0.00 | 0.00 | 44 | 1024.5 |
| 20260508012044 | 24 | 79 | 3.2 | 11.3 | 0.00 | 0.00 | 0.00 | 45 | 1024.6 |
| 20260508011543 | 24 | 96 | 3.2 | 11.3 | 0.00 | 0.00 | 0.00 | 45 | 1024.7 |
| 20260508011045 | 24 | 92 | 4.8 | 9.7 | 0.00 | 0.00 | 0.00 | 45 | 1024.7 |
| 20260508010539 | 24 | 51 | 3.2 | 12.9 | 0.00 | 0.00 | 0.00 | 45 | 1024.7 |
| 20260508010040 | 24 | 86 | 3.2 | 12.9 | 0.00 | 0.00 | 0.00 | 44 | 1024.8 |
| 20260508005545 | 24 | 46 | 1.6 | 12.9 | 0.00 | 0.00 | 0.00 | 43 | 1024.9 |
| 20260508005039 | 24 | 47 | 3.2 | 12.9 | 0.00 | 0.00 | 0.00 | 44 | 1024.9 |
| 20260508004539 | 24 | 134 | 3.2 | 14.5 | 0.00 | 0.00 | 0.00 | 43 | 1024.9 |
| 20260508004040 | 24 | 61 | 3.2 | 14.5 | 0.00 | 0.00 | 0.00 | 44 | 1025.0 |
| 20260508003535 | 24 | 83 | 3.2 | 11.3 | 0.00 | 0.00 | 0.00 | 45 | 1024.9 |
| 20260508003036 | 24 | 105 | 3.2 | 14.5 | 0.00 | 0.00 | 0.00 | 45 | 1025.0 |
| 20260508002537 | 24 | 96 | 4.8 | 14.5 | 0.00 | 0.00 | 0.00 | 42 | 1025.0 |
| 20260508002036 | 24 | 135 | 6.4 | 17.7 | 0.00 | 0.00 | 0.00 | 43 | 1024.9 |
| 20260508001535 | 24 | 75 | 6.4 | 17.7 | 0.00 | 0.00 | 0.00 | 43 | 1025.0 |
| 20260508001037 | 24 | 89 | 4.8 | 16.1 | 0.00 | 0.00 | 0.00 | 43 | 1025.0 |
| 20260508000532 | 24 | 127 | 3.2 | 12.9 | 0.00 | 0.00 | 0.00 | 43 | 1025.0 |
| 20260508000032 | 24 | 175 | 4.8 | 12.9 | 0.00 | 0.00 | 0.00 | 46 | 1025.2 |
| 20260507235533 | 23 | 122 | 3.2 | 9.7 | 0.00 | 0.00 | 0.00 | 45 | 1025.2 |
| 20260507235031 | 23 | 90 | 4.8 | 9.7 | 0.00 | 0.00 | 0.00 | 45 | 1025.4 |
| 20260507234531 | 23 | 39 | 4.8 | 11.3 | 0.00 | 0.00 | 0.00 | 45 | 1025.4 |
| 20260507234032 | 24 | 286 | 3.2 | 11.3 | 0.00 | 0.00 | 0.00 | 43 | 1025.3 |
| 20260507233531 | 24 | 128 | 1.6 | 6.4 | 0.00 | 0.00 | 0.00 | 43 | 1025.4 |
| 20260507233031 | 24 | 67 | 3.2 | 6.4 | 0.00 | 0.00 | 0.00 | 44 | 1025.5 |
| 20260507232532 | 24 | 5 | 3.2 | 8.0 | 0.00 | 0.00 | 0.00 | 43 | 1025.5 |
| 20260507232027 | 24 | 94 | 3.2 | 8.0 | 0.00 | 0.00 | 0.00 | 43 | 1025.7 |
| 20260507231523 | 24 | 34 | 1.6 | 6.4 | 0.00 | 0.00 | 0.00 | 43 | 1025.6 |
| 20260507231023 | 24 | 92 | 1.6 | 8.0 | 0.00 | 0.00 | 0.00 | 42 | 1025.7 |
| 20260507230523 | 23 | 70 | 1.6 | 11.3 | 0.00 | 0.00 | 0.00 | 44 | 1025.7 |
| 20260507230023 | 23 | 80 | 1.6 | 11.3 | 0.00 | 0.00 | 0.00 | 45 | 1025.7 |
| 20260507225523 | 23 | 300 | 1.6 | 6.4 | 0.00 | 0.00 | 0.00 | 42 | 1025.9 |
| 20260507225021 | 23 | 286 | 1.6 | 8.0 | 0.00 | 0.00 | 0.00 | 42 | 1025.9 |
| 20260507224520 | 23 | 0 | 3.2 | 9.7 | 0.00 | 0.00 | 0.00 | 45 | 1026.0 |
| 20260507224018 | 23 | 48 | 3.2 | 12.9 | 0.00 | 0.00 | 0.00 | 43 | 1026.0 |
| 20260507223517 | 22 | 79 | 3.2 | 12.9 | 0.00 | 0.00 | 0.00 | 48 | 1026.1 |
| 20260507223017 | 22 | 46 | 3.2 | 8.0 | 0.00 | 0.00 | 0.00 | 49 | 1026.2 |
| 20260507222518 | 22 | 263 | 3.2 | 12.9 | 0.00 | 0.00 | 0.00 | 47 | 1026.2 |
| 20260507222015 | 22 | 269 | 3.2 | 12.9 | 0.00 | 0.00 | 0.00 | 49 | 1026.3 |
| 20260507221513 | 22 | 107 | 3.2 | 12.9 | 0.00 | 0.00 | 0.00 | 48 | 1026.3 |
| 20260507221014 | 22 | 85 | 3.2 | 6.4 | 0.00 | 0.00 | 0.00 | 52 | 1026.2 |
| 20260507220513 | 22 | 38 | 4.8 | 12.9 | 0.00 | 0.00 | 0.00 | 51 | 1026.4 |
| 20260507220011 | 22 | 0 | 3.2 | 12.9 | 0.00 | 0.00 | 0.00 | 49 | 1026.7 |
| 20260507215512 | 22 | 22 | 3.2 | 14.5 | 0.00 | 0.00 | 0.00 | 49 | 1026.7 |
| 20260507215006 | 21 | 300 | 4.8 | 14.5 | 0.00 | 0.00 | 0.00 | 49 | 1026.8 |
| 20260507214505 | 21 | 32 | 3.2 | 12.9 | 0.00 | 0.00 | 0.00 | 52 | 1026.8 |
| 20260507214005 | 21 | 217 | 3.2 | 8.0 | 0.00 | 0.00 | 0.00 | 54 | 1026.8 |
| 20260507213505 | 21 | 291 | 3.2 | 12.9 | 0.00 | 0.00 | 0.00 | 52 | 1026.8 |
| 20260507213005 | 21 | 281 | 3.2 | 12.9 | 0.00 | 0.00 | 0.00 | 52 | 1026.9 |
| 20260507212506 | 21 | 212 | 3.2 | 11.3 | 0.00 | 0.00 | 0.00 | 53 | 1027.0 |
| 20260507212001 | 20 | 348 | 3.2 | 11.3 | 0.00 | 0.00 | 0.00 | 57 | 1027.1 |
| 20260507211501 | 20 | 247 | 1.6 | 9.7 | 0.00 | 0.00 | 0.00 | 57 | 1027.1 |
| 20260507211002 | 20 | 130 | 1.6 | 9.7 | 0.00 | 0.00 | 0.00 | 61 | 1027.2 |
| 20260507210503 | 20 | 238 | 3.2 | 12.9 | 0.00 | 0.00 | 0.00 | 60 | 1027.3 |
| 20260507205959 | 20 | 273 | 3.2 | 12.9 | 0.00 | 0.00 | 0.00 | 61 | 1027.2 |
| 20260507205500 | 20 | 193 | 3.2 | 8.0 | 0.00 | 0.00 | 0.00 | 60 | 1027.3 |
| 20260507204953 | 20 | 294 | 3.2 | 8.0 | 0.00 | 0.00 | 0.00 | 61 | 1027.3 |
| 20260507204453 | 20 | 315 | 1.6 | 8.0 | 0.00 | 0.00 | 0.00 | 63 | 1027.5 |
| 20260507203953 | 20 | 355 | 3.2 | 8.0 | 0.00 | 0.00 | 0.00 | 61 | 1027.5 |
| 20260507203453 | 20 | 38 | 3.2 | 8.0 | 0.00 | 0.00 | 0.00 | 63 | 1027.6 |
| 20260507202953 | 20 | 24 | 3.2 | 8.0 | 0.00 | 0.00 | 0.00 | 63 | 1027.7 |
| 20260507202454 | 20 | 59 | 3.2 | 11.3 | 0.00 | 0.00 | 0.00 | 65 | 1027.8 |
| 20260507201950 | 19 | 286 | 3.2 | 11.3 | 0.00 | 0.00 | 0.00 | 65 | 1027.9 |
| 20260507201449 | 19 | 336 | 3.2 | 11.3 | 0.00 | 0.00 | 0.00 | 64 | 1027.9 |
| 20260507200947 | 19 | 300 | 1.6 | 11.3 | 0.00 | 0.00 | 0.00 | 67 | 1027.9 |
| 20260507200447 | 19 | 299 | 1.6 | 6.4 | 0.00 | 0.00 | 0.00 | 63 | 1027.9 |
| 20260507195947 | 19 | 325 | 1.6 | 6.4 | 0.00 | 0.00 | 0.00 | 66 | 1028.1 |
| 20260507195448 | 18 | 29 | 1.6 | 6.4 | 0.00 | 0.00 | 0.00 | 68 | 1028.0 |
| 20260507194941 | 18 | 288 | 1.6 | 9.7 | 0.00 | 0.00 | 0.00 | 66 | 1028.3 |
| 20260507194441 | 18 | 281 | 3.2 | 9.7 | 0.00 | 0.00 | 0.00 | 64 | 1028.2 |
| 20260507193940 | 18 | 265 | 3.2 | 9.7 | 0.00 | 0.00 | 0.00 | 66 | 1028.3 |
| 20260507193441 | 18 | 258 | 3.2 | 9.7 | 0.00 | 0.00 | 0.00 | 68 | 1028.2 |
| 20260507192941 | 18 | 285 | 4.8 | 16.1 | 0.00 | 0.00 | 0.00 | 66 | 1028.4 |
| 20260507192442 | 18 | 78 | 4.8 | 16.1 | 0.00 | 0.00 | 0.00 | 69 | 1028.4 |
| 20260507191940 | 18 | 281 | 3.2 | 9.7 | 0.00 | 0.00 | 0.00 | 68 | 1028.4 |
| 20260507191437 | 17 | 281 | 3.2 | 9.7 | 0.00 | 0.00 | 0.00 | 69 | 1028.4 |
| 20260507190935 | 17 | 301 | 4.8 | 9.7 | 0.00 | 0.00 | 0.00 | 70 | 1028.5 |
| 20260507190435 | 17 | 324 | 4.8 | 9.7 | 0.00 | 0.00 | 0.00 | 71 | 1028.6 |
| 20260507185935 | 17 | 301 | 4.8 | 9.7 | 0.00 | 0.00 | 0.00 | 73 | 1028.7 |
| 20260507185436 | 16 | 269 | 4.8 | 12.9 | 0.00 | 0.00 | 0.00 | 71 | 1028.7 |
| 20260507184930 | 17 | 294 | 4.8 | 12.9 | 0.00 | 0.00 | 0.00 | 69 | 1028.8 |
| 20260507184429 | 17 | 17 | 3.2 | 12.9 | 0.00 | 0.00 | 0.00 | 69 | 1028.8 |
| 20260507183929 | 17 | 331 | 3.2 | 12.9 | 0.00 | 0.00 | 0.00 | 69 | 1028.9 |
| 20260507183431 | 17 | 341 | 3.2 | 9.7 | 0.00 | 0.00 | 0.00 | 71 | 1028.9 |
| 20260507182929 | 17 | 245 | 3.2 | 11.3 | 0.00 | 0.00 | 0.00 | 71 | 1028.9 |
| 20260507182428 | 17 | 44 | 3.2 | 11.3 | 0.00 | 0.00 | 0.00 | 72 | 1029.0 |
| 20260507181923 | 17 | 91 | 3.2 | 8.0 | 0.00 | 0.00 | 0.00 | 72 | 1028.9 |
| 20260507181423 | 16 | 59 | 3.2 | 8.0 | 0.00 | 0.00 | 0.00 | 72 | 1028.8 |
| 20260507180922 | 16 | 117 | 3.2 | 14.5 | 0.00 | 0.00 | 0.00 | 72 | 1029.1 |
| 20260507180423 | 16 | 342 | 4.8 | 14.5 | 0.00 | 0.00 | 0.00 | 71 | 1028.8 |
| 20260507175922 | 16 | 74 | 3.2 | 11.3 | 0.00 | 0.00 | 0.00 | 74 | 1028.8 |
| 20260507175424 | 16 | 42 | 3.2 | 12.9 | 0.00 | 0.00 | 0.00 | 72 | 1029.0 |
| 20260507174921 | 16 | 46 | 3.2 | 12.9 | 0.00 | 0.00 | 0.00 | 73 | 1029.0 |
| 20260507174418 | 16 | 36 | 3.2 | 12.9 | 0.00 | 0.00 | 0.00 | 73 | 1029.0 |
| 20260507173916 | 16 | 26 | 4.8 | 12.9 | 0.00 | 0.00 | 0.00 | 72 | 1029.0 |
| 20260507173417 | 16 | 321 | 3.2 | 9.7 | 0.00 | 0.00 | 0.00 | 71 | 1028.9 |
| 20260507172917 | 16 | 292 | 3.2 | 12.9 | 0.00 | 0.00 | 0.00 | 72 | 1028.9 |
| 20260507172417 | 16 | 26 | 3.2 | 12.9 | 0.00 | 0.00 | 0.00 | 72 | 1028.9 |
| 20260507171915 | 16 | 0 | 3.2 | 11.3 | 0.00 | 0.00 | 0.00 | 73 | 1029.1 |
| 20260507171415 | 16 | 9 | 3.2 | 11.3 | 0.00 | 0.00 | 0.00 | 72 | 1029.0 |
| 20260507170916 | 16 | 53 | 3.2 | 9.7 | 0.00 | 0.00 | 0.00 | 73 | 1029.0 |
| 20260507170413 | 16 | 39 | 3.2 | 9.7 | 0.00 | 0.00 | 0.00 | 73 | 1029.0 |
| 20260507165911 | 16 | 34 | 3.2 | 11.3 | 0.00 | 0.00 | 0.00 | 73 | 1029.1 |
| 20260507165410 | 16 | 321 | 3.2 | 11.3 | 0.00 | 0.00 | 0.00 | 73 | 1029.1 |
| 20260507164905 | 15 | 88 | 3.2 | 11.3 | 0.00 | 0.00 | 0.00 | 75 | 1029.0 |
| 20260507164405 | 15 | 61 | 3.2 | 9.7 | 0.00 | 0.00 | 0.00 | 75 | 1029.0 |
| 20260507163904 | 15 | 69 | 3.2 | 8.0 | 0.00 | 0.00 | 0.00 | 76 | 1029.0 |
| 20260507163405 | 15 | 266 | 3.2 | 6.4 | 0.00 | 0.00 | 0.00 | 76 | 1029.0 |
| 20260507162905 | 15 | 35 | 3.2 | 6.4 | 0.00 | 0.00 | 0.00 | 76 | 1029.0 |
| 20260507162405 | 14 | 80 | 1.6 | 6.4 | 0.00 | 0.00 | 0.00 | 77 | 1029.1 |
| 20260507161900 | 14 | 298 | 3.2 | 9.7 | 0.00 | 0.00 | 0.00 | 78 | 1029.1 |
| 20260507161357 | 14 | 24 | 3.2 | 9.7 | 0.00 | 0.00 | 0.00 | 78 | 1029.0 |
| 20260507160855 | 13 | 51 | 3.2 | 8.0 | 0.00 | 0.00 | 0.00 | 78 | 1029.1 |
| 20260507160352 | 13 | 19 | 1.6 | 6.4 | 0.00 | 0.00 | 0.00 | 78 | 1029.2 |
| 20260507155854 | 13 | 47 | 1.6 | 8.0 | 0.00 | 0.00 | 0.00 | 78 | 1029.2 |
| 20260507155350 | 13 | 82 | 3.2 | 8.0 | 0.00 | 0.00 | 0.00 | 79 | 1029.2 |
| 20260507154850 | 13 | 44 | 3.2 | 6.4 | 0.00 | 0.00 | 0.00 | 78 | 1029.2 |
| 20260507154349 | 13 | 11 | 1.6 | 6.4 | 0.00 | 0.00 | 0.00 | 78 | 1029.2 |
| 20260507153942 | 13 | 26 | 1.6 | 9.7 | 0.00 | 0.00 | 0.00 | 79 | 1029.2 |
| 20260507153849 | 13 | 26 | 1.6 | 9.7 | 0.00 | 0.00 | 0.00 | 79 | 1029.2 |
| 20260507153614 | 13 | 342 | 3.2 | 9.7 | 0.00 | 0.00 | 0.00 | 80 | 1029.2 |
| 20260507153349 | 13 | 342 | 3.2 | 9.7 | 0.00 | 0.00 | 0.00 | 80 | 1029.2 |
| 20260507152845 | 13 | 347 | 4.8 | 11.3 | 0.00 | 0.00 | 0.00 | 80 | 1029.2 |
| 20260507152627 | 13 | 9 | 1.6 | 6.4 | 0.00 | 0.00 | 0.00 | 79 | 1029.3 |
| 20260507152344 | 13 | 355 | 3.2 | 11.3 | 0.00 | 0.00 | 0.00 | 79 | 1029.3 |
| 20260507151844 | 13 | 9 | 1.6 | 6.4 | 0.00 | 0.00 | 0.00 | 79 | 1029.3 |
| 20260507151346 | 13 | 40 | 1.6 | 6.4 | 0.00 | 0.00 | 0.00 | 80 | 1029.3 |
| 20260507150844 | 13 | 69 | 1.6 | 6.4 | 0.00 | 0.00 | 0.00 | 81 | 1029.3 |
| 20260507150344 | 12 | 43 | 1.6 | 6.4 | 0.00 | 0.00 | 0.00 | 82 | 1029.3 |
| 20260507145846 | 12 | 311 | 1.6 | 6.4 | 0.00 | 0.00 | 0.00 | 82 | 1029.3 |
| 20260507145340 | 12 | 31 | 1.6 | 9.7 | 0.00 | 0.00 | 0.00 | 82 | 1029.3 |
| 20260507144840 | 12 | 271 | 3.2 | 9.7 | 0.00 | 0.00 | 0.00 | 82 | 1029.1 |
| 20260507144342 | 12 | 340 | 3.2 | 8.0 | 0.00 | 0.00 | 0.00 | 82 | 1029.2 |
| 20260507143840 | 12 | 32 | 3.2 | 8.0 | 0.00 | 0.00 | 0.00 | 81 | 1029.1 |
| 20260507143340 | 12 | 46 | 1.6 | 6.4 | 0.00 | 0.00 | 0.00 | 81 | 1029.1 |
| 20260507142842 | 12 | 40 | 0.0 | 6.4 | 0.00 | 0.00 | 0.00 | 82 | 1029.0 |
| 20260507142336 | 12 | 338 | 1.6 | 4.8 | 0.00 | 0.00 | 0.00 | 82 | 1029.1 |
| 20260507141837 | 12 | 0 | 1.6 | 4.8 | 0.00 | 0.00 | 0.00 | 82 | 1029.0 |
| 20260507141336 | 12 | 0 | 1.6 | 4.8 | 0.00 | 0.00 | 0.00 | 83 | 1028.8 |
| 20260507140836 | 12 | 342 | 1.6 | 4.8 | 0.00 | 0.00 | 0.00 | 83 | 1028.9 |
| 20260507140336 | 12 | 339 | 1.6 | 4.8 | 0.00 | 0.00 | 0.00 | 83 | 1028.7 |